GW6347 Weather Reports


Display with metric or nautical units.
time (UTC)temp
F
wind
direction
speed
MPH
gust
MPH
rain 1hr
in
rain 24hr
in
rain mn
in
humidity
%
barometer
mb
20260504081516 55 329 0.0 0.0 0.00 0.00 0.00 92 1017.5
20260504050018 59 130 0.0 0.0 0.00 0.00 0.00 82 1018.9
20260504044524 58 130 0.0 0.0 0.00 0.00 0.00 84 1018.9
20260504043008 58 133 0.0 0.0 0.00 0.00 0.00 84 1019.1
20260504041503 59 132 0.0 0.0 0.00 0.00 0.00 83 1019.0
20260504040011 59 132 0.0 0.0 0.00 0.00 0.00 82 1019.0
20260504034516 59 132 0.0 0.0 0.00 0.00 0.00 82 1019.0
20260504033020 60 132 0.0 0.0 0.00 0.00 0.00 79 1019.0
20260504031507 61 116 0.0 0.0 0.00 0.00 0.00 77 1019.1
20260504030006 62 118 0.0 0.0 0.00 0.00 0.00 75 1018.9
20260504024511 62 109 0.0 0.0 0.00 0.00 0.00 73 1018.8
20260504023016 63 115 0.0 0.0 0.00 0.00 0.00 72 1018.8
20260504021520 64 115 0.0 0.0 0.00 0.00 0.00 69 1018.6
20260504020010 65 120 0.0 0.0 0.00 0.00 0.00 67 1018.4
20260504014512 66 181 0.0 2.0 0.00 0.00 0.00 63 1018.3
20260504013014 68 227 0.0 2.0 0.00 0.00 0.00 59 1018.2
20260504011520 68 192 0.0 2.0 0.00 0.00 0.00 57 1018.0
20260504010022 69 262 0.0 0.0 0.00 0.00 0.00 54 1018.1
20260504004507 70 217 0.0 0.0 0.00 0.00 0.00 51 1017.9
20260504003014 71 207 1.0 2.0 0.00 0.00 0.00 49 1017.9
20260504001519 72 211 1.0 4.0 0.00 0.00 0.00 48 1017.8
20260504000024 72 215 3.0 6.0 0.00 0.00 0.00 46 1017.8
20260503234508 73 211 2.0 7.0 0.00 0.00 0.00 47 1017.8
20260503233012 74 198 3.0 6.0 0.00 0.00 0.00 44 1018.0
20260503231520 74 130 3.0 7.0 0.00 0.00 0.00 45 1017.9
20260503230022 74 207 2.0 9.0 0.00 0.00 0.00 44 1018.0
20260503224526 74 217 2.0 9.0 0.00 0.00 0.00 42 1018.1
20260503223008 75 240 3.0 8.0 0.00 0.00 0.00 41 1018.1
20260503221512 76 172 2.0 10.0 0.00 0.00 0.00 40 1018.2
20260503220021 75 263 3.0 15.0 0.00 0.00 0.00 40 1018.4
20260503214522 75 259 2.0 8.0 0.00 0.00 0.00 40 1018.5
20260503213034 75 257 5.0 12.0 0.00 0.00 0.00 39 1018.7
20260503211511 75 165 4.0 9.0 0.00 0.00 0.00 40 1018.8
20260503210018 76 244 4.0 10.0 0.00 0.00 0.00 39 1019.1
20260503204522 75 106 2.0 12.0 0.00 0.00 0.00 40 1019.2
20260503203026 75 267 2.0 10.0 0.00 0.00 0.00 40 1019.5
20260503201510 75 190 4.0 10.0 0.00 0.00 0.00 39 1019.6
20260503200016 76 195 5.0 8.0 0.00 0.00 0.00 38 1019.7
20260503194520 77 271 3.0 9.0 0.00 0.00 0.00 39 1020.0
20260503193026 77 49 1.0 10.0 0.00 0.00 0.00 35 1020.2
20260503191528 77 275 5.0 9.0 0.00 0.00 0.00 34 1020.6
20260503190035 77 9 3.0 9.0 0.00 0.00 0.00 35 1020.7
20260503184520 77 26 2.0 8.0 0.00 0.00 0.00 36 1020.8
20260503183023 76 81 5.0 10.0 0.00 0.00 0.00 34 1021.0
20260503181506 76 291 1.0 9.0 0.00 0.00 0.00 35 1021.1
20260503180012 76 23 5.0 10.0 0.00 0.00 0.00 34 1021.4
20260503174515 76 279 1.0 6.0 0.00 0.00 0.00 36 1021.6
20260503173021 76 11 4.0 9.0 0.00 0.00 0.00 35 1021.9
20260503171534 75 80 1.0 9.0 0.00 0.00 0.00 35 1022.2